User: anonymous   Login
Location: Caltech
(34.1382°N, 118.1253°W)
Time: 08:50:46
(UTC-08:00)
Language:

Iridium 94 - Orbit

View from above orbital plane
View from above orbital plane
View from above satellite
View from above satellite

Ground track
Ground track

The orbit data is extracted from the following two-line orbital elements,

1 27374U 02005C   15057.59223993  .00000136  00000-0  41333-4 0  9998
2 27374 086.3925 247.4830 0000263 055.6298 005.3105 14.34219284695329
Epoch (UTC): 26 February 2015 14:12:49
Eccentricity: 0.0000263
inclination: 86.3925°
perigee height: 777 km
apogee height: 778 km
right ascension of ascending node: 247.4830°
argument of perigee: 55.6298°
revolutions per day: 14.34219284
mean anomaly at epoch: 5.3105°
orbit number at epoch: 69532

The dashed part of the orbit path shows where the satellite is in the earth's shadow,  

DLR